C/2009 K5 ( McNaught )

Japanese version
Home page
Updated on April 6, 2013

---------------------------------------------------------------------

* Profile

Discovery Date May 27, 2009
Magnitude 17.7 mag
Discoverer R. H. McNaught (Siding Spring)

* Pictures

* Orbital Elements

Epoch 2010 May 4.0 TT = JDT 2455320.5
T 2010 Apr. 30.02335 TT                                 MPC
q   1.4223949            (2000.0)            P               Q
z  -0.0005906      Peri.   66.17301     -0.29950886     +0.09770465
 +/-0.0000002      Node   257.85586     -0.67324337     +0.68320579
e   1.0008401      Incl.  103.87942     +0.67604572     +0.72365990
From 2307 observations 2009 May 27-2011 Nov. 26, mean residual 0".5.

* Finding Charts

* Magnitudes Graph

        m1 = 5.0 + 5 log d + 14.5 log r(t - 20)

---------------------------------------------------------------------

The orbital elements are published on M.P.E.C. 2013-B90.
The charts are made with StellaNavigator Ver.8 (AstroArts).
The magnitudes graphs are made with Comet for Windows.

---------------------------------------------------------------------

Copyright(C) Seiichi Yoshida (comet@aerith.net). All rights reserved.